[Iaude] MPEC X41: 2015 JV [a=2.46,e=0.67,i=7.2,H=21.5,PHA]

mpec at mpcdb1.cfa.harvard.edu mpec at mpcdb1.cfa.harvard.edu
Wed Dec 5 07:33:16 EST 2018


M.P.E.C. 2018-X41                                Issued 2018 Dec. 5, 12:29 UT
 
     The Minor Planet Electronic Circulars contain information on unusual
         minor planets and routine data on comets.  They are published
    on behalf of Division F of the International Astronomical Union by the
          Minor Planet Center, Smithsonian Astrophysical Observatory,
                          Cambridge, MA 02138, U.S.A.

             Prepared using the Tamkin Foundation Computer Network

                              MPC at CFA.HARVARD.EDU
            URL https://www.minorplanetcenter.net/    ISSN 1523-6714


                                    2015 JV
 
                           Revision to MPEC 2015-J42
 
Additional Observations:
     K15J00V  C2018 12 04.45502 09 37 48.35 +14 18 40.2          20.5 GVEX041G96
     K15J00V  C2018 12 04.46017 09 37 50.95 +14 18 35.6          20.1 GVEX041G96
     K15J00V  C2018 12 04.46535 09 37 53.57 +14 18 29.4          20.9 GVEX041G96
     K15J00V  C2018 12 04.47051 09 37 56.19 +14 18 23.9          20.9 GVEX041G96
     K15J00V  C2018 12 04.48822209 38 04.92 +14 18 04.1          20.7 GVEX041H01
     K15J00V  C2018 12 04.49322309 38 07.43 +14 17 58.9          20.5 GVEX041H01
     K15J00V  C2018 12 04.50193309 38 11.80 +14 17 49.5          20.8 GVEX041H01
     K15J00V  C2018 12 04.50927709 38 15.48 +14 17 41.6          20.4 GVEX041H01
     K15J00V  C2018 12 04.53051 09 38 26.23 +14 17 19.3          21.2 GVEX041I52
     K15J00V  C2018 12 04.53176 09 38 26.84 +14 17 18.2          21.6 GVEX041I52
     K15J00V  C2018 12 04.53301 09 38 27.45 +14 17 17.0          20.7 GVEX041I52
     K15J00V  C2018 12 04.53426 09 38 28.10 +14 17 15.1          20.5 GVEX041I52
     K15J00V KC2018 12 05.04066609 42 50.63 +14 07 52.3          21.4 GVEX041L01
     K15J00V KC2018 12 05.04303909 42 51.87 +14 07 49.4          21.5 GVEX041L01
     K15J00V KC2018 12 05.04583709 42 53.31 +14 07 46.8          21.3 GVEX041L01
     K15J00V KC2018 12 05.04863809 42 54.71 +14 07 43.8          21.4 GVEX041L01
     K15J00V KC2018 12 05.05101209 42 55.89 +14 07 41.6          21.4 GVEX041L01
 
Observer details:
G96 Mt. Lemmon Survey.  Observer B. M. Africano.  Measurers B. M. Africano,
    E. J. Christensen, G. A. Farneth, D. C. Fuls, A. R. Gibbs, A. D. Grauer,
    H. Groeller, R. A. Kowalski, S. M. Larson, G. J. Leonard, R. L. Seaman,
    F. C. Shelly.  1.5-m reflector + 10K CCD.
H01 Magdalena Ridge Observatory, Socorro.  Observers W. H. Ryan, E. V. Ryan.
    Measurer W. H. Ryan.  2.4-m f/8.9 Ritchey-Chretien + CCD.
I52 Steward Observatory, Mt. Lemmon Station.  Observer E. J. Christensen.
    Measurers B. M. Africano, E. J. Christensen, G. A. Farneth, D. C. Fuls,
    A. R. Gibbs, A. D. Grauer, H. Groeller, R. A. Kowalski, S. M. Larson,
    G. J. Leonard, R. L. Seaman, F. C. Shelly.  1.0-m reflector + CCD.
L01 Visnjan Observatory, Tican.  Observers K. Korlevic, F. Valentine.
    Measurer K. Korlevic.  1.0-m f/2.9 reflector + CCD.
 
First and last observations above in comparison with prediction:
Residuals in seconds of arc (or two decimals in degrees), reference and Delta-T
181204 G96 0.33+ 0.07-    181205 L01 0.33+ 0.07-    MPO369260   -0.11 day
 
Orbital elements:
2015 JV                                             PHA, Earth MOID = 0.0382 AU
Epoch 2019 Apr. 27.0 TT = JDT 2458600.5                 MPC
M  22.88366              (2000.0)            P               Q
n   0.25579449     Peri.   73.80440     -0.93908075     -0.31988786
a   2.4577739      Node    87.40549     +0.24714260     -0.88263654
e   0.6688008      Incl.    7.22831     +0.23884697     -0.34441907
P   3.85           H   21.5           G   0.15           U   1
Residuals in seconds of arc
150510 703  0.3+  0.2+    150511 I52  0.2+  0.2-    150520 926  0.1-  0.1-
150510 703  0.1+  0.3+    150511 926  0.1+  0.2+    150520 926  0.0   0.0
150510 703  0.2+  0.5+    150511 926  0.1+  0.0     150522 H21  0.5-  0.4+
150510 703  0.1-  0.5+    150511 926  0.1+  0.0     150522 H21  0.1-  0.2-
150510 I52  0.0   0.0     150511 L04  0.6-  0.1-    150522 H21  0.0   0.1-
150510 I52  0.1+  0.0     150511 L04  0.2-  0.1+    150522 H21  0.3-  0.6-
150510 I52  0.0   0.1+    150511 L04  0.3+  0.1+    150522 H21  0.4-  0.0
150510 I52  0.1-  0.2+    150511 L04  0.5-  0.3-    150526 I52  0.4+  0.2-
150510 703  0.6+  0.1+    150511 K62  0.9+  0.1+    150526 I52  0.2+  0.3-
150510 703  0.0   0.1-    150511 K62  0.2+  0.3+    150526 I52  0.0   0.1+
150510 703  0.3+  0.1+    150511 K38  0.0   0.0     150526 I52  0.3-  0.3-
150510 703  0.1-  0.1-    150511 K62  0.5-  0.5-    150526 703  1.0+  0.8-
150510 300  0.3+  1.1+    150511 K62  0.4+  0.4-    150526 703  0.1-  0.3-
150510 300  0.5-  0.5+    150511 K62  0.4+  0.9-    150526 703  0.5+  0.7-
150510 300  0.1+  0.6+    150511 K62  0.4-  0.3+    150526 703  0.8+  1.0-
150510 300  0.5-  0.9+    150511 K38  0.6-  0.2+    150527 H21  0.1-  0.2-
150510 900  0.1+  0.1-    150512 K38  0.2-  0.3-    150527 H21  0.5-  0.2-
150510 O75  0.2+  0.1-    150512 K38  0.1+  0.6-    150527 H21  0.5-  0.3-
150510 O75  0.3+  0.2-    150512 461  0.1+  0.0     150527 204  0.0   0.1-
150510 O75  0.4+  0.2+    150512 461  0.1-  0.3+    150527 204  0.2+  0.2-
150510 900  0.1-  0.0     150512 461  0.2-  0.2+    150527 204  0.5+  0.0
150510 O75  0.7+  0.6+    150512 691  0.1+  0.0     150528 H21  0.0   0.1+
150510 461  0.6+  0.1+    150512 691  0.3-  0.1+    150528 H21  0.1-  0.3+
150510 461  0.2+  0.6+    150512 691  0.1-  0.8+    150528 H21  0.2+  0.1+
150510 461  0.5+  1.4+    150512 I52  0.0   0.1-    150529 H21  0.2-  0.3+
150510 461  0.2+  0.4+    150512 I52  0.0   0.0     150529 H21  0.0   0.4+
150510 461  0.1+  0.3+    150512 I52  0.8-  0.4-    150529 H21  0.3+  0.1-
150510 104  0.0   0.2-    150512 I52  0.5-  0.5+    150529 H21  0.0   0.1+
150510 104  0.2-  0.0     150512 H21  0.0   0.0     150606 807  0.2+  0.9+
150510 104  0.0   0.4-    150512 926  0.0   0.2+    150606 807  0.4+  0.8+
150510 595  0.3-  0.2+    150512 H21  0.0   0.2-    150606 807  1.0+  0.7+
150510 595  0.4+  0.1-    150512 H21  0.2-  0.1-    150607 807  0.6+  0.8+
150510 C43  0.1-  0.3-    150512 926  0.1+  0.2+    150607 807  0.8+  0.9+
150510 595  0.3+  0.4-    150512 H21  0.1-  0.0     150607 807  0.8+  0.8+
150510 C43  0.3-  0.1-    150512 926  0.0   0.4+    150611 691  0.5+  0.2+
150510 160  0.5+  0.1+    150512 H21  0.0   0.2-    150611 691 (0.3+  1.7-)
150510 C77  0.3-  0.5-    150512 H36  0.3-  0.2-    150611 691  0.0   0.4+
150510 C43  0.1-  0.5+    150512 H36  0.4-  0.8-    150614 807  0.1-  0.6-
150510 160  0.0   0.1+    150512 H36  0.0   0.1-    150614 807  0.4+  0.3-
150510 C77  0.1+  1.2-    150512 J95  0.0   0.2-    150614 807  0.2+  0.2-
150510 C43  0.1-  0.2+    150512 B49  1.5+  0.5+    150614 291  0.4+  0.5-
150510 160  0.1+  0.1+    150512 J95  0.2+  0.1+    150614 291  0.2-  0.1-
150510 C77  0.4-  0.1-    150512 B49  0.9+  0.4+    150614 291  0.1+  0.1+
150510 C77  0.0   0.3-    150512 B49  0.7-  0.1+    150615 291  0.2-  0.6+
150510 K62  0.6-  1.3-    150512 J95  0.3+  0.3-    150615 291  0.3-  0.8+
150510 K62 (0.6-  1.9-)   150512 B49  0.0   0.6+    150615 291  0.0   0.0
150510 K62 (0.2-  2.0-)   150513 H21  0.0   0.0     150616 291  0.2-  0.1+
150510 K62  0.7-  1.4-    150513 H21  0.0   0.1+    150616 291  0.1-  0.2+
150510 K62  0.2+  0.4+    150513 H21  0.1+  0.2-    150616 291  0.0   0.0
150510 I93  0.0   0.2-    150513 H21  0.1+  0.1-    150617 291  0.3+  0.1+
150510 I93  0.0   0.1-    150513 H21  0.0   0.1-    150617 291  0.3+  0.2+
150510 I93  0.3-  0.1-    150516 807  0.2+  0.6-    150617 291  0.6-  0.2+
150510 C47  0.0   0.0     150516 807  0.0   0.1-    150620 291  0.1-  0.2+
150510 C47  0.1+  0.2+    150516 807  0.2-  0.1-    150620 291  0.3+  0.1-
150510 C47  0.2+  0.1+    150516 807  0.4-  0.2-    150620 291  0.5+  0.2+
150510 C47  0.0   0.1+    150517 204  0.0   0.1+    150710 568  0.1-  0.1-
150510 C47  0.1+  0.1+    150517 204  0.4-  0.0     150710 568  0.1-  0.1-
150511 H01  0.2-  0.0     150517 204  0.1+  0.0     181204 G96  0.6-  0.2+
150511 H01  0.2-  0.0     150518 926  0.1+  0.2+    181204 G96  0.3-  1.1+
150511 G48  0.5-  0.7-    150518 926  0.1+  0.1-    181204 G96  0.1+  0.3+
150511 H01  0.1-  0.1-    150518 926  0.5+  0.2-    181204 G96  0.6+  0.3+
150511 G48  0.1-  0.3-    150518 807  0.1-  0.4-    181204 H01  0.0   0.0
150511 G48  0.3-  0.4-    150518 807  0.1-  0.3-    181204 H01  0.1+  0.1+
150511 H01  0.2-  0.0     150518 807  0.1-  0.4-    181204 H01  0.1+  0.0
150511 926  0.0   0.0     150518 705  0.5-  1.0-    181204 H01  0.1+  0.0
150511 926  0.2+  0.0     150518 705  0.6-  0.9-    181204 I52  0.2+  0.2-
150511 926  0.4-  0.2-    150518 705  0.3+  1.0+    181204 I52  0.0   0.1+
150511 H36  0.8-  0.6-    150519 807  0.1-  0.0     181204 I52  0.3-  0.2+
150511 H36  0.3-  0.3-    150519 807  0.2-  0.1-    181204 I52  0.0   0.3-
150511 H36  0.4-  0.2-    150519 807  0.2+  0.2-    181205 L01  0.2+  0.3-
150511 I52  0.2+  0.2+    150519 H21  0.0   0.1-    181205 L01  0.4+  0.6-
150511 I52  0.0   0.1-    150519 H21  0.1-  0.0     181205 L01  0.4+  0.1-
150511 I52  0.1-  0.2+    150519 H21  0.2-  0.2-    181205 L01  0.2-  0.0
150511 I52  0.1-  0.3-    150519 H21  0.1-  0.1-    181205 L01  0.8-  0.4+
150511 I52  0.1-  0.1-    150519 H21  0.0   0.0
150511 I52  0.0   0.0     150520 926  0.3+  0.2+

Ephemeris:
2015 JV                  a,e,i = 2.46, 0.67, 7                   q = 0.8140
Date    TT    R. A. (2000) Decl.     Delta      r     Elong.  Phase     V
2018 11 05    07 04 20.9 +17 15 08   0.6755  1.4290   116.7    38.3    23.0
...
2018 11 20    08 03 14.9 +16 37 50   0.4756  1.2811   117.8    43.0    22.1
...
2018 11 28    08 49 04.3 +15 44 38   0.3874  1.2030   115.0    48.0    21.6
...
2018 12 04    09 33 57.3 +14 26 44   0.3335  1.1454   110.4    53.8    21.4
2018 12 05    09 42 28.1 +14 08 54   0.3258  1.1360   109.4    54.9    21.3
2018 12 06    09 51 17.3 +13 49 24   0.3185  1.1265   108.3    56.2    21.3
...
2018 12 12    10 50 16.7 +11 12 22   0.2846  1.0712   100.0    64.9    21.2
...
2018 12 20    12 18 54.3 +06 00 05   0.2707  1.0014    85.9    78.5    21.4
...
2019 01 04    14 41 12.6 -04 00 17   0.3378  0.8911    64.4    95.6    22.3

A. U. Tomatic                (C) Copyright 2018 MPC           M.P.E.C. 2018-X41



More information about the Iaude mailing list